UAE14X OBBI-OMDB

Flight info

Callsign UAE14X
Flight time N/A
Altitude 25000
Route BHR345/30R BHR N697 SODAK P559 VUTEB
Aircraft A35K/H-SDE2E3GHIJ3J4J5LM1ORWXY/LB1D1

Departure

Time 2026-05-08 17:24
Airport Bahrain International Airport (OBBI)

Arrival

Time N/A
Airport Dubai International Airport (OMDB)
Time Latitude Longitude Altitude Speed Heading
2026-05-08 17:05 26.26700 50.63283 26 ft 0 kts 213°
2026-05-08 17:15 26.26703 50.63285 26 ft 2 kts 213°
2026-05-08 17:16 26.26716 50.63294 26 ft 2 kts 213°
2026-05-08 17:16 26.26730 50.63304 26 ft 2 kts 213°
2026-05-08 17:16 26.26744 50.63314 24 ft 3 kts 197°
2026-05-08 17:16 26.26762 50.63317 25 ft 3 kts 164°
2026-05-08 17:17 26.26778 50.63308 25 ft 2 kts 139°
2026-05-08 17:17 26.26790 50.63296 25 ft 3 kts 122°
2026-05-08 17:17 26.26798 50.63281 24 ft 0 kts 121°
2026-05-08 17:20 26.26797 50.63284 24 ft 1 kts 115°
2026-05-08 17:21 26.26801 50.63343 25 ft 16 kts 63°
2026-05-08 17:21 26.26814 50.63479 27 ft 20 kts 123°
2026-05-08 17:21 26.26704 50.63670 27 ft 40 kts 122°
2026-05-08 17:21 26.26547 50.63942 28 ft 42 kts 123°
2026-05-08 17:22 26.26387 50.64217 29 ft 40 kts 123°
2026-05-08 17:22 26.26233 50.64484 28 ft 42 kts 122°
2026-05-08 17:22 26.26073 50.64761 30 ft 43 kts 123°
2026-05-08 17:22 26.26117 50.64992 27 ft 33 kts
2026-05-08 17:23 26.26245 50.64831 23 ft 29 kts 298°
2026-05-08 17:23 26.26355 50.64632 24 ft 38 kts 303°
2026-05-08 17:23 26.26684 50.64062 26 ft 138 kts 303°
2026-05-08 17:23 26.27343 50.62940 410 ft 195 kts 303°
2026-05-08 17:24 26.28180 50.61605 1338 ft 220 kts 308°
2026-05-08 17:24 26.29355 50.60543 2037 ft 222 kts 336°
2026-05-08 17:24 26.30836 50.60070 2681 ft 228 kts 346°
2026-05-08 17:24 26.32444 50.59735 3232 ft 237 kts 348°
2026-05-08 17:25 26.34089 50.59403 3674 ft 247 kts 348°
2026-05-08 17:25 26.35816 50.59394 3942 ft 253 kts
2026-05-08 17:25 26.37401 50.60273 3995 ft 262 kts 35°
2026-05-08 17:25 26.38556 50.61876 3992 ft 269 kts 52°
2026-05-08 17:26 26.39470 50.63712 3993 ft 272 kts 57°
2026-05-08 17:26 26.40317 50.65607 3997 ft 273 kts 59°
2026-05-08 17:26 26.41106 50.67536 3992 ft 273 kts 61°
2026-05-08 17:26 26.41845 50.69485 3992 ft 273 kts 62°
2026-05-08 17:27 26.42547 50.71423 3994 ft 273 kts 63°
2026-05-08 17:27 26.43247 50.73399 3991 ft 274 kts 63°
2026-05-08 17:27 26.43941 50.75373 3990 ft 273 kts 63°
2026-05-08 17:27 26.44637 50.77350 3991 ft 273 kts 63°
2026-05-08 17:28 26.45332 50.79318 3991 ft 273 kts 62°
2026-05-08 17:28 26.46134 50.81230 3992 ft 269 kts 51°
2026-05-08 17:28 26.47302 50.82783 3993 ft 262 kts 40°
2026-05-08 17:28 26.48640 50.84154 3991 ft 261 kts 36°
2026-05-08 17:29 26.50046 50.85424 3991 ft 260 kts 33°
2026-05-08 17:29 26.51489 50.86648 3990 ft 259 kts 32°
2026-05-08 17:29 26.52928 50.87844 3995 ft 258 kts 32°
2026-05-08 17:29 26.54370 50.89046 3988 ft 258 kts 32°
2026-05-08 17:30 26.55807 50.90258 3989 ft 258 kts 32°
2026-05-08 17:30 26.57238 50.91480 3992 ft 258 kts 32°
2026-05-08 17:30 26.58660 50.92703 3990 ft 258 kts 33°
2026-05-08 17:30 26.60083 50.93933 3990 ft 258 kts 33°
2026-05-08 17:31 26.61501 50.95164 3989 ft 258 kts 33°
2026-05-08 17:31 26.62918 50.96396 3988 ft 257 kts 33°
2026-05-08 17:31 26.64331 50.97623 3987 ft 257 kts 33°
2026-05-08 17:31 26.65746 50.98852 3987 ft 257 kts 33°
2026-05-08 17:32 26.67145 51.00065 3988 ft 259 kts 33°
2026-05-08 17:32 26.68566 51.01297 3990 ft 259 kts 33°
2026-05-08 17:32 26.70009 51.02555 3988 ft 259 kts 33°
2026-05-08 17:32 26.71435 51.03795 3986 ft 260 kts 33°
2026-05-08 17:33 26.72847 51.05021 3986 ft 260 kts 33°
2026-05-08 17:33 26.74277 51.06262 3988 ft 260 kts 33°
2026-05-08 17:33 26.75611 51.07652 3989 ft 265 kts 45°
2026-05-08 17:33 26.76531 51.09462 3986 ft 274 kts 66°
2026-05-08 17:34 26.76747 51.11618 3993 ft 285 kts 91°
2026-05-08 17:34 26.76371 51.13804 3987 ft 287 kts 101°
2026-05-08 17:34 26.75749 51.15939 3988 ft 289 kts 107°
2026-05-08 17:34 26.75017 51.18036 3984 ft 290 kts 108°
2026-05-08 17:35 26.74832 51.18545 3985 ft 290 kts 108°
2026-05-08 17:35 26.74338 51.19901 3987 ft 291 kts 108°
2026-05-08 17:37 26.73778 51.21451 3991 ft 291 kts 107°
2026-05-08 17:37 26.73040 51.23557 3993 ft 291 kts 107°
2026-05-08 17:37 26.72323 51.25677 3991 ft 291 kts 107°
2026-05-08 17:37 26.71634 51.27772 3987 ft 290 kts 106°
2026-05-08 17:38 26.70947 51.29901 3984 ft 291 kts 105°
2026-05-08 17:38 26.70263 51.32034 3987 ft 291 kts 105°
2026-05-08 17:38 26.69583 51.34163 3988 ft 291 kts 105°
2026-05-08 17:38 26.68899 51.36297 3986 ft 291 kts 105°
2026-05-08 17:39 26.68214 51.38431 3985 ft 291 kts 105°
2026-05-08 17:39 26.67527 51.40564 3986 ft 292 kts 105°
2026-05-08 17:39 26.66838 51.42698 3984 ft 291 kts 105°
2026-05-08 17:39 26.66150 51.44831 3981 ft 291 kts 105°
2026-05-08 17:40 26.65465 51.46962 3983 ft 291 kts 105°
2026-05-08 17:40 26.64779 51.49097 3985 ft 292 kts 105°
2026-05-08 17:40 26.64092 51.51237 3987 ft 292 kts 105°
2026-05-08 17:40 26.63406 51.53370 3983 ft 291 kts 105°
2026-05-08 17:41 26.62728 51.55478 3983 ft 291 kts 105°
2026-05-08 17:41 26.62041 51.57613 3984 ft 292 kts 105°
2026-05-08 17:41 26.61353 51.59744 3983 ft 292 kts 105°
2026-05-08 17:41 26.60661 51.61890 3983 ft 293 kts 105°
2026-05-08 17:42 26.59972 51.64030 3977 ft 292 kts 105°
2026-05-08 17:42 26.59283 51.66167 3978 ft 292 kts 105°
2026-05-08 17:42 26.58594 51.68300 3978 ft 292 kts 105°
2026-05-08 17:42 26.57903 51.70436 3977 ft 292 kts 105°
2026-05-08 17:43 26.57216 51.72577 3978 ft 293 kts 105°
2026-05-08 17:43 26.56525 51.74719 3974 ft 293 kts 105°
2026-05-08 17:43 26.55833 51.76860 3976 ft 293 kts 105°
2026-05-08 17:43 26.55149 51.78971 3976 ft 293 kts 105°
2026-05-08 17:44 26.54445 51.81140 3979 ft 293 kts 105°
2026-05-08 17:44 26.53761 51.83250 3972 ft 294 kts 106°
2026-05-08 17:44 26.53064 51.85402 4050 ft 295 kts 106°
2026-05-08 17:44 26.52365 51.87557 4511 ft 295 kts 107°
2026-05-08 17:45 26.51665 51.89715 5224 ft 295 kts 108°
2026-05-08 17:45 26.50950 51.91876 5781 ft 301 kts 109°
2026-05-08 17:45 26.50218 51.94069 6564 ft 298 kts 110°
2026-05-08 17:45 26.49497 51.96219 7301 ft 294 kts 111°
2026-05-08 17:46 26.48775 51.98370 7916 ft 297 kts 111°
2026-05-08 17:46 26.48048 52.00546 8503 ft 301 kts 111°
2026-05-08 17:46 26.47313 52.02746 9155 ft 302 kts 111°
2026-05-08 17:46 26.46581 52.04942 9872 ft 301 kts 110°
2026-05-08 17:47 26.45847 52.07148 10364 ft 308 kts 111°
2026-05-08 17:47 26.45078 52.09451 10612 ft 324 kts 112°
2026-05-08 17:47 26.44271 52.11860 10853 ft 338 kts 112°
2026-05-08 17:47 26.43717 52.13512 11005 ft 347 kts 112°
2026-05-08 17:48 26.42574 52.16937 11307 ft 363 kts 112°
2026-05-08 17:48 26.41677 52.19622 11540 ft 374 kts 113°
2026-05-08 17:48 26.40655 52.22668 11986 ft 378 kts 113°
2026-05-08 17:49 26.39732 52.25423 12468 ft 379 kts 114°
2026-05-08 17:49 26.38808 52.28182 12934 ft 381 kts 114°
2026-05-08 17:49 26.37887 52.30930 13376 ft 383 kts 114°
2026-05-08 17:49 26.36949 52.33722 13781 ft 386 kts 114°
2026-05-08 17:50 26.36003 52.36540 14140 ft 389 kts 114°
2026-05-08 17:50 26.35047 52.39383 14522 ft 392 kts 114°
2026-05-08 17:50 26.34035 52.42206 14920 ft 393 kts 116°
2026-05-08 17:50 26.32952 52.45020 15311 ft 395 kts 117°
2026-05-08 17:51 26.31839 52.47838 15699 ft 398 kts 117°
2026-05-08 17:51 26.30723 52.50656 16087 ft 400 kts 117°
2026-05-08 17:51 26.29596 52.53522 16485 ft 403 kts 117°
2026-05-08 17:51 26.28478 52.56393 16919 ft 404 kts 117°
2026-05-08 17:52 26.27738 52.58305 17170 ft 406 kts 117°
2026-05-08 17:52 26.26621 52.61203 17571 ft 408 kts 116°
2026-05-08 17:52 26.24366 52.67066 18295 ft 414 kts 116°
2026-05-08 17:53 26.23231 52.70026 18641 ft 416 kts 116°
2026-05-08 17:53 26.22107 52.72969 18954 ft 419 kts 116°
2026-05-08 17:53 26.20947 52.76001 19272 ft 422 kts 116°
2026-05-08 17:53 26.19795 52.79013 19598 ft 423 kts 116°
2026-05-08 17:54 26.18637 52.82037 19929 ft 425 kts 116°
2026-05-08 17:54 26.17486 52.85039 20211 ft 429 kts 116°
2026-05-08 17:54 26.16313 52.88093 20501 ft 431 kts 116°
2026-05-08 17:54 26.15127 52.91180 20799 ft 434 kts 117°
2026-05-08 17:55 26.13936 52.94278 21090 ft 436 kts 117°
2026-05-08 17:55 26.12738 52.97392 21389 ft 438 kts 116°
2026-05-08 17:55 26.11532 53.00525 21664 ft 441 kts 116°
2026-05-08 17:55 26.10320 53.03670 21942 ft 443 kts 116°
2026-05-08 17:56 26.09115 53.06843 22250 ft 445 kts 115°
2026-05-08 17:56 26.07937 53.10037 22521 ft 448 kts 115°
2026-05-08 17:56 26.06762 53.13260 22768 ft 451 kts 115°
2026-05-08 17:56 26.05598 53.16462 23028 ft 453 kts 115°
2026-05-08 17:57 26.04412 53.19714 23314 ft 455 kts 115°
2026-05-08 17:57 26.03213 53.22989 23548 ft 457 kts 115°
2026-05-08 17:57 26.02006 53.26276 23758 ft 459 kts 115°
2026-05-08 17:57 26.00794 53.29563 24002 ft 460 kts 115°
2026-05-08 17:58 26.00566 53.30181 24047 ft 460 kts 115°
2026-05-08 17:58 25.99570 53.32880 24233 ft 462 kts 116°
2026-05-08 17:58 25.98342 53.36199 24433 ft 464 kts 116°
2026-05-08 17:59 25.97111 53.39526 24657 ft 466 kts 116°
2026-05-08 17:59 25.95892 53.42816 24850 ft 468 kts 116°
2026-05-08 17:59 25.94648 53.46172 24916 ft 468 kts 116°
2026-05-08 17:59 25.93407 53.49520 24924 ft 468 kts 116°
2026-05-08 18:00 25.92189 53.52877 24925 ft 469 kts 115°
2026-05-08 18:00 25.89857 53.59666 24925 ft 470 kts 114°
2026-05-08 18:00 25.88707 53.63065 24925 ft 470 kts 114°
2026-05-08 18:01 25.87554 53.66460 24925 ft 470 kts 114°
2026-05-08 18:01 25.86394 53.69852 24921 ft 470 kts 114°
2026-05-08 18:01 25.85232 53.73236 24921 ft 470 kts 114°
2026-05-08 18:01 25.84074 53.76593 24917 ft 469 kts 114°
2026-05-08 18:02 25.82901 53.79972 24917 ft 469 kts 114°
2026-05-08 18:02 25.81725 53.83348 24922 ft 468 kts 114°
2026-05-08 18:02 25.80549 53.86722 24922 ft 468 kts 114°
2026-05-08 18:02 25.79374 53.90093 24922 ft 468 kts 114°
2026-05-08 18:03 25.78199 53.93462 24922 ft 468 kts 114°
2026-05-08 18:03 25.77093 53.96634 24921 ft 468 kts 114°
2026-05-08 18:03 25.76165 53.99294 24922 ft 468 kts 114°
2026-05-08 18:03 25.75714 54.00585 24922 ft 468 kts 114°
2026-05-08 18:04 25.75130 54.02273 24922 ft 468 kts 114°
2026-05-08 18:04 25.74577 54.03946 24922 ft 468 kts 113°
2026-05-08 18:04 25.74035 54.05650 24919 ft 468 kts 112°
2026-05-08 18:04 25.73506 54.07363 24919 ft 469 kts 112°
2026-05-08 18:05 25.72987 54.09077 24919 ft 469 kts 111°
2026-05-08 18:05 25.72471 54.10802 24919 ft 469 kts 111°
2026-05-08 18:05 25.71959 54.12518 24922 ft 469 kts 111°
2026-05-08 18:05 25.71454 54.14216 24922 ft 469 kts 111°
2026-05-08 18:06 25.70940 54.15934 24919 ft 469 kts 111°
2026-05-08 18:06 25.70425 54.17652 24919 ft 469 kts 111°
2026-05-08 18:06 25.69909 54.19367 24919 ft 469 kts 111°
2026-05-08 18:06 25.69884 54.19448 24919 ft 469 kts 111°
2026-05-08 18:07 25.69504 54.20704 24908 ft 469 kts 111°
2026-05-08 18:07 25.68992 54.22388 24913 ft 468 kts 111°
2026-05-08 18:07 25.68085 54.25355 24914 ft 468 kts 111°
2026-05-08 18:07 25.67032 54.28778 24919 ft 468 kts 112°
2026-05-08 18:08 25.65975 54.32199 24921 ft 468 kts 112°
2026-05-08 18:08 25.64920 54.35609 24917 ft 468 kts 112°
2026-05-08 18:08 25.63861 54.39025 24916 ft 468 kts 112°
2026-05-08 18:08 25.62801 54.42435 24916 ft 468 kts 112°
2026-05-08 18:09 25.61754 54.45802 24918 ft 468 kts 112°
2026-05-08 18:09 25.60691 54.49218 24919 ft 468 kts 112°
2026-05-08 18:09 25.59630 54.52627 24919 ft 468 kts 112°
2026-05-08 18:09 25.58596 54.56049 24911 ft 469 kts 108°
2026-05-08 18:10 25.58127 54.59644 24917 ft 474 kts 92°
2026-05-08 18:10 25.58365 54.63291 24915 ft 476 kts 85°
2026-05-08 18:10 25.58799 54.66929 24913 ft 477 kts 84°
2026-05-08 18:10 25.59254 54.70528 24913 ft 478 kts 84°
2026-05-08 18:11 25.59717 54.74177 24911 ft 478 kts 84°
2026-05-08 18:11 25.60179 54.77828 24916 ft 477 kts 84°
2026-05-08 18:11 25.60639 54.81470 24916 ft 477 kts 84°
2026-05-08 18:11 25.61107 54.85111 24913 ft 477 kts 84°
2026-05-08 18:12 25.61036 54.88748 24917 ft 470 kts 102°
2026-05-08 18:12 25.60097 54.92132 24917 ft 464 kts 118°
2026-05-08 18:12 25.58565 54.95264 24915 ft 462 kts 123°
2026-05-08 18:12 25.57020 54.98386 24913 ft 463 kts 121°
2026-05-08 18:13 25.55569 55.01583 24913 ft 464 kts 118°
2026-05-08 18:13 25.54083 55.04749 24917 ft 462 kts 123°
2026-05-08 18:13 25.52447 55.07811 24905 ft 462 kts 124°